Tracking 18843 objects as of 20-November-2017
HD Live streaming from Space Station
objects crossing your sky now

NNSS 20 (TRANSIT 20)

Track NNSS 20 (TRANSIT 20) now!
10-day predictions
NNSS 20 (TRANSIT 20) is classified as:


NORAD ID: 6909
Int'l Code: 1973-081A
Perigee: 890.6 km
Apogee: 1,119.6 km
Inclination: 89.8 °
Period: 105.1 minutes
Semi major axis: 7376 km
RCS: 1.4124 m2 (large)
Launch date: October 30, 1973
Source: United States (US)
Launch site: AIR FORCE WESTERN TEST RANGE (AFWTR)
aabbcc
Your satellite tracking list
Your tracking list is empty




NASA's NSSDC Master Catalog

Two Line Element Set (TLE):
1  6909U 73081A   17323.91901323 +.00000056 +00000-0 +49409-4 0  9998
2  6909 089.8201 309.7560 0155229 259.1235 099.2426 13.70461886400218
Source of the keplerian elements: AFSPC